This is the latest recevied weather packets stored in our database for station/object NT9G. If no packets are shown the sender has not sent any weather packets the latest 10 day(s).
| Time | Temp. | Humidity | Pressure | Rain* | Wind** | Luminosity | Snow |
|---|---|---|---|---|---|---|---|
| 1777568919 | 17.22° C | 30% | 1017.2 hPa | 0 mm | - | - | - |
| 1777568618 | 17.22° C | 29% | 1017.3 hPa | 0 mm | - | - | - |
| 1777567718 | 17.78° C | 33% | 1017.5 hPa | 0 mm | - | - | - |
| 1777567417 | 17.22° C | 30% | 1017.5 hPa | 0 mm | - | - | - |
| 1777567117 | 17.22° C | 33% | 1017.6 hPa | 0 mm | - | - | - |
| 1777566817 | 16.67° C | 37% | 1017.6 hPa | 0 mm | - | - | - |
| 1777566517 | 16.67° C | 31% | 1017.7 hPa | 0 mm | - | - | - |
| 1777566216 | 16.67° C | 31% | 1017.7 hPa | 0 mm | - | - | - |
| 1777565916 | 16.67° C | 30% | 1017.8 hPa | 0 mm | - | - | - |
| 1777565616 | 16.67° C | 30% | 1017.8 hPa | 0 mm | - | - | - |
| 1777565315 | 16.67° C | 30% | 1017.8 hPa | 0 mm | - | - | - |
| 1777565015 | 16.67° C | 30% | 1017.9 hPa | 0 mm | - | - | - |
| 1777564715 | 16.11° C | 32% | 1017.9 hPa | 0 mm | - | - | - |
| 1777564414 | 16.11° C | 31% | 1018 hPa | 0 mm | - | - | - |
| 1777564114 | 16.11° C | 35% | 1018 hPa | 0 mm | - | - | - |
| 1777563814 | 16.11° C | 33% | 1018 hPa | 0 mm | - | - | - |
| 1777563514 | 16.11° C | 33% | 1017.9 hPa | 0 mm | - | - | - |
| 1777563213 | 16.11° C | 32% | 1018 hPa | 0 mm | - | - | - |
| 1777562913 | 16.11° C | 30% | 1018 hPa | 0 mm | - | - | - |
| 1777562613 | 15.56° C | 33% | 1018 hPa | 0 mm | - | - | - |
| 1777562312 | 15.56° C | 32% | 1018.1 hPa | 0 mm | - | - | - |
| 1777562012 | 15.56° C | 36% | 1018.1 hPa | 0 mm | - | - | - |
| 1777561712 | 15° C | 37% | 1018.1 hPa | 0 mm | - | - | - |
| 1777561412 | 15° C | 35% | 1018.2 hPa | 0 mm | - | - | - |
| 1777561112 | 15° C | 38% | 1018.3 hPa | 0 mm | - | - | - |
* Rain since midnight (hover to see other rain measurements)
** Current wind speed in m/s (hover to see current wind gust speed)